Meteo pe oră la Abdrahmanovo

Astăzi, 24 Iulie, Sâmbătă

Timp Temperatura Precipitaţii Vânt Presiune Umiditate
00:00 +18°C° 0 mm 0 m/s 741 mmHg 61%
01:00 +20°C° 0 mm 1 m/s 741 mmHg 60%
02:00 +20°C° 0 mm 1 m/s 742 mmHg 59%
03:00 +20°C° 0 mm 1 m/s 742 mmHg 58%
04:00 +19°C° 0 mm 1 m/s 742 mmHg 57%
05:00 +20°C° 0 mm 1 m/s 742 mmHg 55%
06:00 +21°C° 0 mm 1 m/s 742 mmHg 54%
07:00 +20°C° 0 mm 2 m/s 743 mmHg 53%
08:00 +23°C° 0 mm 2 m/s 743 mmHg 47%
09:00 +24°C° 0 mm 2 m/s 743 mmHg 41%
10:00 +26°C° 0 mm 3 m/s 743 mmHg 34%
11:00 +26°C° 0 mm 4 m/s 743 mmHg 34%
12:00 +26°C° 0 mm 4 m/s 743 mmHg 34%
13:00 +26°C° 0 mm 5 m/s 743 mmHg 33%
14:00 +25°C° 0 mm 4 m/s 743 mmHg 39%
15:00 +23°C° 0 mm 4 m/s 744 mmHg 45%
16:00 +22°C° 0 mm 4 m/s 744 mmHg 51%
17:00 +22°C° 0 mm 3 m/s 744 mmHg 50%
18:00 +22°C° 0 mm 3 m/s 745 mmHg 49%
19:00 +22°C° 0 mm 3 m/s 745 mmHg 48%
20:00 +21°C° 0 mm 3 m/s 745 mmHg 52%
21:00 +20°C° 0 mm 3 m/s 746 mmHg 56%
22:00 +19°C° 0 mm 3 m/s 746 mmHg 59%
23:00 +18°C° 0 mm 3 m/s 747 mmHg 68%

Mâine, 25 Iulie, Duminică

Timp Temperatura Precipitaţii Vânt Presiune Umiditate
00:00 +16°C° 0 mm 2 m/s 747 mmHg 76%
01:00 +15°C° 0 mm 2 m/s 747 mmHg 85%
02:00 +14°C° 0 mm 2 m/s 748 mmHg 87%
03:00 +13°C° 0 mm 2 m/s 748 mmHg 90%
04:00 +13°C° 0 mm 2 m/s 749 mmHg 93%
05:00 +13°C° 0 mm 3 m/s 749 mmHg 83%
06:00 +14°C° 0 mm 3 m/s 750 mmHg 74%
07:00 +15°C° 0 mm 4 m/s 751 mmHg 64%
08:00 +18°C° 0 mm 4 m/s 751 mmHg 54%
09:00 +19°C° 0 mm 4 m/s 751 mmHg 44%
10:00 +21°C° 0 mm 5 m/s 751 mmHg 34%
11:00 +22°C° 0 mm 5 m/s 751 mmHg 31%
12:00 +23°C° 0 mm 4 m/s 751 mmHg 28%
13:00 +23°C° 0 mm 4 m/s 752 mmHg 26%
14:00 +25°C° 0 mm 4 m/s 751 mmHg 26%
15:00 +25°C° 0 mm 4 m/s 751 mmHg 25%
16:00 +26°C° 0 mm 4 m/s 751 mmHg 25%
17:00 +25°C° 0 mm 4 m/s 752 mmHg 27%
18:00 +23°C° 0 mm 4 m/s 752 mmHg 28%
19:00 +22°C° 0 mm 4 m/s 752 mmHg 30%
20:00 +20°C° 0 mm 4 m/s 753 mmHg 36%
21:00 +17°C° 0 mm 3 m/s 753 mmHg 41%
22:00 +14°C° 0 mm 3 m/s 754 mmHg 47%
23:00 +14°C° 0 mm 2 m/s 754 mmHg 50%

Poimâine, 26 Iulie, Luni

Timp Temperatura Precipitaţii Vânt Presiune Umiditate
00:00 +13°C° 0 mm 2 m/s 754 mmHg 54%
01:00 +13°C° 0 mm 2 m/s 755 mmHg 57%
02:00 +12°C° 0 mm 2 m/s 755 mmHg 59%
03:00 +12°C° 0 mm 2 m/s 755 mmHg 61%
04:00 +10°C° 0 mm 2 m/s 755 mmHg 63%
05:00 +13°C° 0 mm 1 m/s 755 mmHg 58%
06:00 +15°C° 0 mm 1 m/s 755 mmHg 52%
07:00 +16°C° 0 mm 0 m/s 756 mmHg 46%
08:00 +19°C° 0 mm 1 m/s 756 mmHg 41%
09:00 +20°C° 0 mm 2 m/s 756 mmHg 36%
10:00 +22°C° 0 mm 3 m/s 756 mmHg 30%
11:00 +22°C° 0 mm 3 m/s 755 mmHg 29%
12:00 +23°C° 0 mm 4 m/s 755 mmHg 28%
13:00 +25°C° 0 mm 4 m/s 755 mmHg 27%
14:00 +25°C° 0 mm 4 m/s 755 mmHg 28%
15:00 +25°C° 0 mm 4 m/s 755 mmHg 29%
16:00 +25°C° 0 mm 4 m/s 755 mmHg 29%
17:00 +24°C° 0 mm 3 m/s 755 mmHg 32%
18:00 +24°C° 0 mm 3 m/s 754 mmHg 34%
19:00 +23°C° 0 mm 2 m/s 754 mmHg 36%
20:00 +22°C° 0 mm 1 m/s 754 mmHg 39%
21:00 +21°C° 0 mm 1 m/s 754 mmHg 41%
22:00 +19°C° 0 mm 1 m/s 754 mmHg 43%
23:00 +19°C° 0 mm 1 m/s 754 mmHg 46%

27 Iulie, Marţi

Timp Temperatura Precipitaţii Vânt Presiune Umiditate
00:00 +18°C° 0 mm 1 m/s 754 mmHg 48%
01:00 +16°C° 0 mm 1 m/s 754 mmHg 51%
02:00 +16°C° 0 mm 1 m/s 754 mmHg 54%
03:00 +15°C° 0 mm 1 m/s 754 mmHg 57%
04:00 +15°C° 0 mm 1 m/s 754 mmHg 59%
05:00 +16°C° 0 mm 1 m/s 754 mmHg 57%
06:00 +18°C° 0 mm 1 m/s 754 mmHg 54%
07:00 +20°C° 0 mm 1 m/s 754 mmHg 51%
08:00 +21°C° 0 mm 2 m/s 754 mmHg 45%
09:00 +23°C° 0 mm 2 m/s 753 mmHg 39%
10:00 +25°C° 0 mm 3 m/s 753 mmHg 34%
11:00 +25°C° 0 mm 4 m/s 753 mmHg 32%
12:00 +26°C° 0 mm 4 m/s 752 mmHg 31%
13:00 +26°C° 0 mm 5 m/s 752 mmHg 30%
14:00 +26°C° 0 mm 5 m/s 752 mmHg 30%
15:00 +27°C° 0 mm 5 m/s 751 mmHg 30%
16:00 +27°C° 0 mm 6 m/s 751 mmHg 30%
17:00 +26°C° 0 mm 5 m/s 751 mmHg 36%
18:00 +25°C° 0 mm 5 m/s 751 mmHg 43%
19:00 +22°C° 0 mm 4 m/s 751 mmHg 49%
20:00 +20°C° 0.1 mm 3 m/s 751 mmHg 59%
21:00 +18°C° 0.1 mm 2 m/s 751 mmHg 68%
22:00 +18°C° 0.1 mm 1 m/s 751 mmHg 78%
23:00 +16°C° 0 mm 1 m/s 750 mmHg 81%

28 Iulie, Miercuri

Timp Temperatura Precipitaţii Vânt Presiune Umiditate
00:00 +15°C° 0 mm 2 m/s 750 mmHg 85%
01:00 +15°C° 0 mm 2 m/s 750 mmHg 88%
02:00 +14°C° 0 mm 2 m/s 750 mmHg 90%
03:00 +14°C° 0 mm 1 m/s 751 mmHg 91%
04:00 +13°C° 0 mm 1 m/s 751 mmHg 93%
05:00 +15°C° 0 mm 1 m/s 751 mmHg 87%
06:00 +16°C° 0 mm 1 m/s 751 mmHg 81%
07:00 +17°C° 0 mm 2 m/s 751 mmHg 75%
08:00 +19°C° 0 mm 2 m/s 751 mmHg 65%
09:00 +21°C° 0 mm 3 m/s 751 mmHg 54%
10:00 +23°C° 0 mm 4 m/s 751 mmHg 43%
11:00 +25°C° 0 mm 4 m/s 750 mmHg 38%
12:00 +26°C° 0 mm 4 m/s 750 mmHg 33%
13:00 +27°C° 0 mm 4 m/s 750 mmHg 28%
14:00 +27°C° 0 mm 4 m/s 750 mmHg 28%
15:00 +28°C° 0 mm 4 m/s 749 mmHg 27%
16:00 +28°C° 0 mm 5 m/s 749 mmHg 26%
17:00 +28°C° 0 mm 4 m/s 749 mmHg 28%
18:00 +27°C° 0 mm 4 m/s 749 mmHg 31%
19:00 +27°C° 0 mm 4 m/s 749 mmHg 33%
20:00 +25°C° 0 mm 3 m/s 749 mmHg 38%
21:00 +24°C° 0 mm 2 m/s 749 mmHg 43%
22:00 +22°C° 0 mm 1 m/s 749 mmHg 48%
23:00 +21°C° 0 mm 2 m/s 749 mmHg 50%

29 Iulie, Joi

Timp Temperatura Precipitaţii Vânt Presiune Umiditate
00:00 +20°C° 0 mm 2 m/s 749 mmHg 53%
01:00 +20°C° 0 mm 2 m/s 749 mmHg 55%
02:00 +19°C° 0.1 mm 2 m/s 749 mmHg 61%
03:00 +18°C° 0.1 mm 2 m/s 749 mmHg 66%
04:00 +17°C° 0.1 mm 2 m/s 749 mmHg 71%
05:00 +18°C° 0 mm 3 m/s 749 mmHg 67%
06:00 +19°C° 0 mm 4 m/s 749 mmHg 63%
07:00 +21°C° 0 mm 4 m/s 749 mmHg 59%
08:00 +23°C° 0 mm 5 m/s 749 mmHg 50%
09:00 +26°C° 0 mm 6 m/s 749 mmHg 42%
10:00 +28°C° 0 mm 6 m/s 748 mmHg 34%
11:00 +29°C° 0 mm 6 m/s 748 mmHg 31%
12:00 +30°C° 0 mm 6 m/s 748 mmHg 28%
13:00 +32°C° 0 mm 6 m/s 747 mmHg 25%
14:00 +32°C° 0 mm 6 m/s 747 mmHg 26%
15:00 +32°C° 0 mm 6 m/s 747 mmHg 27%
16:00 +32°C° 0 mm 6 m/s 747 mmHg 27%
17:00 +30°C° 0 mm 5 m/s 747 mmHg 30%
18:00 +29°C° 0 mm 3 m/s 747 mmHg 32%
19:00 +28°C° 0 mm 2 m/s 746 mmHg 35%
20:00 +27°C° 0 mm 2 m/s 746 mmHg 37%
21:00 +26°C° 0 mm 2 m/s 746 mmHg 39%
22:00 +24°C° 0 mm 2 m/s 746 mmHg 40%
23:00 +24°C° 0 mm 2 m/s 746 mmHg 41%
Arată mai mult

Formular de consimțământ

Meteoprog și furnizorii noștri de servicii pot stoca și accesa date personale, precum cookies, identificatori de dispozitiv sau alte tehnologii similare pe dispozitivul dumneavoastră și procesa astfel de date pentru a personaliza conținutul și reclamele, dar și pentru a oferi caracteristici de social media și pentru a analiza traficul.

  • Stocarea și/sau accesarea informațiilor pe dispozitivul dumneavoastră

    Cookies, identificatori de dispozitiv sau alte informații pot fi stocate sau accesate pe dispozitiv în scopurile indicate mai sus.

  • Reclame și conținut personalizat, evaluarea reclamelor și a conținutului, informații despre audiențe și dezvoltarea produselor

    Reclamele și conținutul pot fi personalizate pe baza unui profil. Pot fi adăugate date suplimentare pentru a personaliza mai bine reclamele și conținutul. Performanța reclamelor și conținutului poate fi măsurată. Pot fi obținute informații despre utilizatorii care au văzut reclamele și conținutul. Aceste date pot fi utilizate pentru a dezvolta sau îmbunătăți experiența utilizatorilor, sistemele și software-ul.

Dând clic pe ‘Sunt de acord’, permiteți utilizarea cookie-urilor menționate, a identificatorilor de dispozitiv, balizelor web sau altor tehnologii similare. Setările pot fi modificate din browser-ul dispozitivului dumneavoastră.

În anumite scopuri, interesele legitime pot prima asupra consimțământului. Puteți citi mai multe informații în acest sens în Politica privind Confidențialitatea Datelor și Cookie.